Mountain Home, AR

7:29 AM CDT on October 22, 2017 (GMT -0500)
Baxter County Regional

Weather History for KBPK - April, 2013

Change the Weather History Date:

Wednesday, April 3, 2013

  Actual Average (KFLP) Record (KFLP)
Temperature  
Mean Temperature 43 °F -  
Max Temperature 55 °F 65 °F 87 °F (2007)
Min Temperature 33 °F 43 °F 33 °F (2005)
Degree Days  
Heating Degree Days 22    
Moisture  
Dew Point 24 °F    
Average Humidity 51    
Maximum Humidity 86    
Minimum Humidity 27    
Precipitation  
Precipitation 0.00 in - - ()
Sea Level Pressure  
Sea Level Pressure 30.23 in    
Wind  
Wind Speed 5 mph (East)    
Max Wind Speed 14 mph    
Max Gust Speed 20 mph    
Visibility 10 miles    
Events      
Averages and records for this station are not official NWS values.
T = Trace of Precipitation, MM = Missing Value Source: NWS Daily Summary

Daily Weather History Graph

Daily Weather History Graph

Search for Another Location

Airport or City:

Trip Planner

Search our weather history database for the weather conditions in past years. The results will help you decide how hot, cold, wet, or windy it might be!

Date:

Astronomy

Apr. 03, 2013 Rise Set
Actual Time 6:52 AM CDT 7:33 PM CDT
Civil Twilight 6:26 AM CDT 7:59 PM CDT
Nautical Twilight 5:56 AM CDT 8:30 PM CDT
Astronomical Twilight 5:24 AM CDT 9:02 PM CDT
Moon 2:23 AM CDT (4/3) 12:57 PM CDT (4/3)
Length of Visible Light 13h 33m
Length of Day
12h 41m
Last Quarter, 44% of the Moon is Illuminated
Apr 3
Last Quarter
Apr 10
New
Apr 18
First Quarter
Apr 25
Full
May 2
Last Quarter

Hourly Weather History & Observations

Time (CDT) Temp. Windchill Dew Point Humidity Pressure Visibility Wind Dir Wind Speed Gust Speed Precip Events Conditions
12:53 AM 37.0 °F - 33.1 °F 86% 30.25 in 9.0 mi Calm Calm - N/A   Overcast
1:53 AM 37.0 °F 34.5 °F 33.1 °F 86% 30.25 in 10.0 mi ENE 3.5 mph - N/A   Overcast
2:53 AM 36.0 °F 33.3 °F 30.9 °F 82% 30.23 in 10.0 mi NE 3.5 mph - N/A   Mostly Cloudy
3:53 AM 35.1 °F 30.1 °F 28.0 °F 76% 30.21 in 10.0 mi ENE 5.8 mph - N/A   Clear
4:53 AM 35.1 °F 31.0 °F 27.0 °F 72% 30.23 in 10.0 mi NE 4.6 mph - N/A   Clear
5:53 AM 34.0 °F 29.8 °F 26.1 °F 73% 30.27 in 10.0 mi ENE 4.6 mph - N/A   Clear
6:53 AM 33.1 °F 28.7 °F 25.0 °F 72% 30.27 in 10.0 mi NE 4.6 mph - N/A   Clear
7:53 AM 34.0 °F 26.6 °F 24.1 °F 67% 30.29 in 10.0 mi NE 9.2 mph - N/A   Overcast
8:53 AM 37.0 °F 32.4 °F 25.0 °F 62% 30.30 in 10.0 mi ENE 5.8 mph - N/A   Overcast
9:53 AM 41.0 °F 36.4 °F 24.1 °F 51% 30.30 in 10.0 mi East 6.9 mph - N/A   Overcast
10:53 AM 44.1 °F 38.6 °F 21.0 °F 40% 30.29 in 10.0 mi East 10.4 mph 19.6 mph N/A   Mostly Cloudy
11:53 AM 48.0 °F - 19.9 °F 33% 30.27 in 10.0 mi East 13.8 mph 19.6 mph N/A   Overcast
12:53 PM 48.9 °F - 19.0 °F 31% 30.25 in 10.0 mi ENE 11.5 mph - N/A   Overcast
1:53 PM 50.0 °F - 19.0 °F 29% 30.22 in 10.0 mi East 9.2 mph - N/A   Partly Cloudy
2:53 PM 53.1 °F - 19.9 °F 27% 30.21 in 10.0 mi Variable 5.8 mph 17.3 mph N/A   Overcast
3:53 PM 52.0 °F - 19.9 °F 28% 30.21 in 10.0 mi East 9.2 mph - N/A   Mostly Cloudy
4:53 PM 52.0 °F - 19.0 °F 27% 30.19 in 10.0 mi ESE 10.4 mph - N/A   Scattered Clouds
5:53 PM 51.1 °F - 19.9 °F 29% 30.18 in 10.0 mi East 8.1 mph - N/A   Scattered Clouds
6:53 PM 50.0 °F - 23.0 °F 35% 30.19 in 10.0 mi SSE 4.6 mph - N/A   Mostly Cloudy
7:53 PM 48.0 °F - 23.0 °F 37% 30.17 in 10.0 mi ESE 4.6 mph - N/A   Overcast
8:53 PM 46.9 °F - 24.1 °F 41% 30.17 in 10.0 mi ESE 3.5 mph - N/A   Overcast
9:53 PM 46.9 °F - 24.1 °F 41% 30.19 in 10.0 mi ESE 4.6 mph - N/A   Overcast
10:53 PM 45.0 °F - 23.0 °F 42% 30.19 in 10.0 mi Calm Calm - N/A   Mostly Cloudy
11:53 PM 44.1 °F 42.5 °F 24.1 °F 45% 30.18 in 10.0 mi East 3.5 mph - N/A   Overcast